Total_Precipitation_Accumulation
0.51 0.74 0.82 1.12 1.84 1.79 2.17 1.56 1.60 1.31 0.80 0.68 0.69 0.85 0.66 0.38 0.27 0.30 0.33 0.35 0.39 0.41 0.52 0.69 0.72 0.74 0.88 0.98 1.09 1.29 1.40 1.52 1.37 0.72 0.59 0.51 0.43 0.34 0.26 0.27 0.25 0.20 0.18
0.38 0.38 0.49 0.56 1.14 0.98 1.37 1.60 1.50 1.25 1.14 0.71 0.67 0.69 0.62 0.62 0.42 0.32 0.24 0.27 0.28 0.30 0.33 0.49 0.49 0.69 0.83 0.87 1.01 1.04 1.03 0.98 1.14 0.72 0.41 0.37 0.30 0.26 0.25 0.32 0.31 0.36 0.39
0.40 0.45 0.46 0.52 0.75 0.78 1.05 1.24 1.44 1.80 1.34 1.00 0.88 1.14 0.94 0.84 0.75 0.50 0.30 0.23 0.24 0.24 0.30 0.39 0.39 0.54 0.59 0.56 0.63 0.67 0.73 0.87 1.01 1.10 0.70 0.54 0.40 0.36 0.40 0.43 0.41 0.37 0.36
1.32 1.09 0.60 0.70 0.92 0.67 0.72 1.07 1.05 1.54 1.90 1.30 1.17 0.80 0.73 0.76 0.73 0.69 0.59 0.48 0.40 0.33 0.31 0.34 0.42 0.48 0.47 0.53 0.65 0.71 0.79 0.96 0.99 0.96 0.88 0.70 0.54 0.45 0.57 0.54 0.45 0.45 0.47
2.21 1.27 1.04 0.91 0.74 0.72 0.87 1.17 1.50 1.52 1.90 1.81 1.55 1.23 0.87 0.87 0.98 0.84 0.84 0.86 0.75 0.68 0.60 0.62 0.57 0.55 0.53 0.56 0.58 0.60 0.89 0.98 1.15 1.30 1.16 1.07 0.93 0.74 0.71 0.71 0.80 0.64 0.51
2.21 2.19 1.87 1.19 0.88 0.60 0.68 0.81 1.29 1.56 1.85 2.70 2.24 2.29 1.77 1.35 1.27 1.17 1.08 1.09 1.21 1.26 1.13 0.91 0.84 0.87 0.74 0.68 0.66 0.67 0.85 1.19 1.38 1.44 1.35 1.07 0.69 0.67 0.63 0.74 0.94 1.03 0.84
2.32 2.34 1.91 1.63 1.22 0.96 0.81 0.90 1.12 1.55 1.82 2.51 2.90 2.66 2.70 2.62 2.43 1.91 1.74 1.61 1.74 1.70 1.50 1.37 1.20 1.00 1.11 1.15 1.26 1.25 1.30 1.46 1.42 1.24 1.09 0.94 0.84 0.76 1.03 1.22 1.16 1.22 0.98
1.23 1.69 1.75 2.00 2.09 2.29 1.78 1.78 1.97 2.22 2.46 2.61 3.08 3.13 2.24 2.15 2.22 1.84 1.53 1.25 1.07 1.04 1.06 1.09 1.15 1.20 1.18 1.11 1.21 1.60 1.46 1.22 1.16 1.19 1.26 1.17 1.18 1.25 1.53 1.76 1.68 1.56 1.27
0.17 0.35 0.63 1.15 1.58 1.85 1.87 2.34 2.49 2.62 2.96 3.01 2.79 2.65 2.09 1.92 1.80 1.59 1.76 1.69 1.53 1.31 1.12 0.99 1.03 0.99 1.06 1.11 1.30 1.44 1.26 1.16 1.29 1.40 1.50 1.60 1.57 1.45 1.41 1.67 1.79 1.65 1.39
0.16 0.16 0.42 0.93 0.88 0.83 0.77 1.08 1.24 1.18 1.13 1.35 1.60 1.68 1.61 1.30 1.28 1.19 0.97 1.10 1.26 1.17 1.20 0.96 1.18 0.83 0.94 1.14 0.93 0.86 0.90 0.79 0.97 1.00 1.04 1.08 1.00 0.96 1.25 1.21 1.59 2.33 1.76
0.31 0.30 0.51 0.59 0.65 0.63 0.58 0.58 0.57 0.63 0.61 0.57 0.60 0.56 0.53 0.51 0.51 0.72 0.72 0.61 0.54 0.61 0.66 0.69 0.74 1.09 1.07 0.97 0.97 0.90 1.01 1.04 1.19 1.04 0.97 0.95 0.91 0.86 0.89 1.09 1.51 2.55 2.84
0.45 0.44 0.43 0.38 0.38 0.40 0.36 0.44 0.42 0.41 0.41 0.36 0.31 0.26 0.21 0.22 0.25 0.26 0.31 0.41 0.58 0.59 0.57 0.66 0.94 1.22 0.78 0.70 0.77 0.94 1.13 1.10 0.79 0.77 0.94 0.99 0.94 0.93 1.01 1.14 1.29 1.53 1.81
0.25 0.26 0.27 0.25 0.26 0.23 0.19 0.21 0.26 0.30 0.31 0.31 0.27 0.25 0.22 0.13 0.08 0.06 0.06 0.13 0.17 0.16 0.19 0.41 0.47 0.43 0.49 0.63 0.84 0.87 0.81 0.71 0.96 1.30 1.35 1.33 1.30 1.38 1.44 1.37 1.28 1.24 1.30
0.17 0.19 0.23 0.29 0.29 0.23 0.20 0.17 0.16 0.15 0.16 0.18 0.18 0.16 0.12 0.07 0.04 0.01 0.05 0.07 0.06 0.11 0.21 0.19 0.11 0.12 0.19 0.23 0.32 0.32 0.28 0.44 0.86 1.17 1.28 1.26 1.37 1.40 1.32 1.37 1.60 1.40 1.50
0.27 0.29 0.29 0.33 0.39 0.34 0.30 0.25 0.19 0.15 0.11 0.09 0.08 0.06 0.05 0.05 0.04 0.10 0.11 0.10 0.14 0.22 0.19 0.12 0.15 0.13 0.11 0.10 0.10 0.18 0.30 0.52 0.78 0.76 0.96 1.03 1.18 1.32 1.34 1.42 1.78 1.80 1.73
0.36 0.42 0.42 0.39 0.39 0.33 0.26 0.30 0.32 0.28 0.27 0.24 0.18 0.14 0.11 0.09 0.09 0.11 0.12 0.20 0.24 0.21 0.25 0.15 0.11 0.16 0.26 0.36 0.48 0.55 0.58 0.68 0.68 0.88 1.01 1.11 1.34 1.43 1.59 1.71 1.77 1.66 1.48
0.38 0.39 0.46 0.47 0.43 0.44 0.40 0.30 0.31 0.33 0.28 0.20 0.17 0.17 0.16 0.16 0.15 0.16 0.24 0.30 0.25 0.36 0.34 0.24 0.23 0.23 0.25 0.30 0.43 0.68 0.90 0.97 1.29 1.57 1.59 1.50 1.53 1.69 1.88 1.92 1.66 1.46 1.25
0.34 0.38 0.36 0.39 0.40 0.41 0.40 0.42 0.38 0.29 0.25 0.23 0.30 0.37 0.33 0.33 0.35 0.40 0.47 0.47 0.39 0.46 0.46 0.41 0.43 0.44 0.50 0.60 0.68 0.88 1.04 1.09 1.22 1.38 1.62 1.69 1.88 2.12 2.01 1.71 1.35 1.24 1.16
0.26 0.25 0.26 0.28 0.33 0.38 0.38 0.39 0.42 0.44 0.45 0.42 0.39 0.52 0.48 0.55 0.60 0.59 0.61 0.56 0.45 0.48 0.56 0.63 0.69 0.75 0.80 0.94 1.07 1.25 1.46 1.71 1.92 2.00 1.79 1.93 1.95 2.18 1.85 1.38 1.20 1.04 1.24
0.44 0.50 0.46 0.43 0.43 0.42 0.41 0.40 0.41 0.41 0.41 0.42 0.41 0.41 0.50 0.70 0.63 0.40 0.35 0.35 0.38 0.47 0.60 0.76 0.84 1.03 1.12 1.25 1.43 1.69 1.92 1.95 1.97 1.91 1.99 2.01 1.83 1.78 1.67 1.31 1.19 1.38 1.20
0.36 0.42 0.43 0.38 0.36 0.39 0.43 0.46 0.45 0.46 0.43 0.39 0.31 0.38 0.65 0.75 0.60 0.42 0.42 0.43 0.49 0.56 0.69 0.87 1.00 1.16 1.21 1.28 1.45 1.69 1.97 1.93 1.86 2.00 1.95 1.76 1.60 1.49 1.04 1.13 1.19 1.18 1.26
0.28 0.28 0.31 0.33 0.36 0.38 0.39 0.40 0.43 0.46 0.45 0.44 0.32 0.42 0.66 0.54 0.35 0.33 0.38 0.43 0.50 0.62 0.76 1.00 1.01 0.96 1.18 1.67 2.02 2.12 1.90 1.82 1.77 1.96 1.83 1.46 1.30 1.20 1.17 1.21 1.18 1.25 1.25
0.21 0.20 0.20 0.22 0.27 0.35 0.40 0.35 0.41 0.46 0.45 0.42 0.43 0.43 0.41 0.47 0.39 0.37 0.41 0.46 0.62 0.71 0.73 0.91 1.00 1.00 1.01 1.47 2.05 2.72 2.95 2.25 2.10 2.10 2.07 1.67 1.42 1.44 1.53 1.51 1.25 1.20 1.07
0.20 0.29 0.25 0.19 0.21 0.30 0.31 0.38 0.44 0.52 0.56 0.54 0.53 0.50 0.49 0.50 0.50 0.48 0.51 0.57 0.67 0.72 0.80 0.91 1.06 1.23 1.31 1.65 2.03 2.32 2.63 2.66 2.57 2.49 2.65 2.65 2.01 1.54 1.50 1.41 1.15 1.03 0.98
0.35 0.26 0.23 0.21 0.28 0.36 0.41 0.39 0.35 0.33 0.39 0.45 0.46 0.43 0.39 0.43 0.47 0.46 0.51 0.64 0.74 0.79 0.78 0.87 1.11 1.32 1.49 1.83 2.12 2.29 2.48 2.46 2.56 2.49 2.27 2.12 1.76 1.39 1.38 1.39 1.17 1.08 1.02
0.32 0.30 0.33 0.37 0.40 0.37 0.42 0.43 0.40 0.39 0.43 0.40 0.42 0.41 0.39 0.40 0.38 0.42 0.45 0.55 0.62 0.64 0.64 0.71 0.83 1.02 1.31 1.61 1.86 2.08 2.14 1.97 1.82 1.64 1.79 1.85 1.54 1.27 1.17 1.18 1.04 1.05 0.93